Weather History for KDIK - January, 2013

Change the Weather History Date:

Friday, January 4, 2013

  Actual Average Record
Temperature  
Mean Temperature 20 °F 16 °F  
Max Temperature 29 °F 26 °F 56 °F (2008)
Min Temperature 11 °F 6 °F -31 °F (1940)
Degree Days  
Heating Degree Days 45 49  
Month to date heating degree days 183 196  
Since 1 July heating degree days 3574 3733  
Cooling Degree Days 0 0  
Month to date cooling degree days 0 0  
Year to date cooling degree days 0 0  
Moisture  
Dew Point 11 °F    
Average Humidity 65    
Maximum Humidity 76    
Minimum Humidity 53    
Precipitation  
Precipitation 0.00 in 0.01 in 0.54 in (1997)
Month to date precipitation 0.01 0.04  
Year to date precipitation 0.01 0.04  
Sea Level Pressure  
Sea Level Pressure 30.09 in    
Wind  
Wind Speed 11 mph (WSW)    
Max Wind Speed 18 mph    
Max Gust Speed 21 mph    
Visibility 10 miles    
Events      
T = Trace of Precipitation, MM = Missing Value Source: NWS Daily Summary

Daily Weather History Graph

Daily Weather History Graph

Search for Another Location

Airport or City:

Trip Planner

Search our weather history database for the weather conditions in past years. The results will help you decide how hot, cold, wet, or windy it might be!

Date:

Astronomy

Jan. 04, 2013 Rise Set
Actual Time 7:36 AM MST 4:16 PM MST
Civil Twilight 7:01 AM MST 4:51 PM MST
Nautical Twilight 6:22 AM MST 5:30 PM MST
Astronomical Twilight 5:46 AM MST 6:06 PM MST
Moon No Moon Rise 10:50 AM MST (1/4)
Length of Visible Light 9h 50m
Length of Day
8h 40m
Waning Gibbous, 54% of the Moon is Illuminated
Jan 4
Waning Gibbous
Jan 4
Last Quarter
Jan 11
New
Jan 18
First Quarter
Jan 26
Full

Hourly Weather History & Observations

Time (MST) Temp. Windchill Dew Point Humidity Pressure Visibility Wind Dir Wind Speed Gust Speed Precip Events Conditions
12:56 AM 19.9 °F 6.2 °F 10.0 °F 65% 30.12 in 10.0 mi West 15.0 mph - N/A   Clear
1:56 AM 18.0 °F 4.2 °F 9.0 °F 68% 30.12 in 10.0 mi WNW 13.8 mph - N/A   Clear
2:56 AM 17.1 °F 2.5 °F 8.1 °F 68% 30.12 in 10.0 mi West 15.0 mph - N/A   Clear
3:56 AM 16.0 °F 1.1 °F 7.0 °F 68% 30.13 in 10.0 mi WNW 15.0 mph - N/A   Clear
4:56 AM 17.1 °F 3.6 °F 8.1 °F 68% 30.13 in 10.0 mi WNW 12.7 mph - N/A   Clear
5:56 AM 17.1 °F 3.6 °F 7.0 °F 65% 30.14 in 10.0 mi WNW 12.7 mph - N/A   Clear
6:56 AM 12.9 °F 3.8 °F 6.1 °F 74% 30.14 in 10.0 mi West 5.8 mph - N/A   Clear
7:56 AM 12.9 °F 2.6 °F 6.1 °F 74% 30.13 in 10.0 mi SW 6.9 mph - N/A   Clear
8:56 AM 12.9 °F 5.2 °F 5.0 °F 71% 30.14 in 10.0 mi SW 4.6 mph - N/A   Clear
9:56 AM 15.1 °F 6.4 °F 7.0 °F 70% 30.16 in 10.0 mi SW 5.8 mph - N/A   Clear
10:56 AM 21.9 °F 13.4 °F 10.9 °F 63% 30.12 in 10.0 mi SSW 6.9 mph - N/A   Clear
11:56 AM 26.1 °F 18.4 °F 15.1 °F 63% 30.07 in 10.0 mi SSW 6.9 mph - N/A   Clear
12:56 PM 28.0 °F 19.3 °F 14.0 °F 56% 30.05 in 10.0 mi WSW 9.2 mph - N/A   Clear
1:56 PM 28.0 °F 18.6 °F 15.1 °F 58% 30.05 in 10.0 mi WSW 10.4 mph - N/A   Clear
2:56 PM 27.0 °F 19.5 °F 16.0 °F 63% 30.05 in 10.0 mi SW 6.9 mph - N/A   Clear
3:56 PM 24.1 °F 16.0 °F 14.0 °F 65% 30.05 in 10.0 mi West 6.9 mph - N/A   Clear
4:56 PM 23.0 °F 10.1 °F 14.0 °F 68% 30.05 in 10.0 mi West 15.0 mph - N/A   Clear
5:56 PM 21.9 °F 10.4 °F 12.9 °F 68% 30.06 in 10.0 mi West 11.5 mph - N/A   Clear
6:56 PM 24.1 °F 11.0 °F 14.0 °F 65% 30.06 in 10.0 mi West 16.1 mph - N/A   Clear
7:56 PM 25.0 °F 13.1 °F 14.0 °F 63% 30.05 in 10.0 mi West 13.8 mph - N/A   Clear
8:56 PM 23.0 °F 11.7 °F 12.9 °F 65% 30.05 in 10.0 mi West 11.5 mph - N/A   Clear
9:56 PM 21.9 °F 9.8 °F 12.9 °F 68% 30.04 in 10.0 mi West 12.7 mph - N/A   Clear
10:56 PM 21.9 °F 9.8 °F 14.0 °F 72% 30.02 in 10.0 mi West 12.7 mph - N/A   Clear
11:56 PM 24.1 °F 10.6 °F 16.0 °F 71% 29.99 in 10.0 mi WSW 17.3 mph - N/A   Clear